Location: Praha
(50.0830°N, 14.4670°E)
Time: 00:31:46
(UTC+02:00)

ISS - Pass Details

Date: 28 October 2020
Orbit: 417 x 420 km, 51.6° (Epoch: 23 October)

Event Time Altitude Azimuth Distance (km) Brightness Sun altitude
Exits shadow 05:09:07 33° 234° (SW) 725 -3.0 -16.0°
Maximum altitude 05:10:27 70° 159° (SSE) 448 -3.6 -15.8°
Drops below altitude 10° 05:13:48 10° 75° (ENE) 1,499 0.3 -15.3°
Sets 05:15:54 0° 73° (ENE) 2,365 1.5 -14.9°
